Time,TemperatureF,DewpointF,PressureIn,WindDirection,WindDirectionDegrees,WindSpeedMPH,WindSpeedGustMPH,Humidity,HourlyPrecipIn,Conditions,Clouds,dailyrainin,SoftwareType,DateUTC
2013-06-21 00:00:00,63.8,-99.9,29.93,East,100,0.0,8.7,-999,-99.99,,,-99.99,,2013-06-21 07:00:00,
2013-06-21 00:05:00,63.5,-99.9,29.93,ESE,110,0.0,0.0,-999,-99.99,,,-99.99,,2013-06-21 07:05:00,
2013-06-21 00:10:00,63.3,-99.9,29.93,East,84,8.7,15.3,-999,-99.99,,,-99.99,,2013-06-21 07:10:00,
2013-06-21 00:15:00,62.7,-99.9,29.93,ENE,73,0.0,4.3,-999,-99.99,,,-99.99,,2013-06-21 07:15:00,
2013-06-21 00:20:00,62.7,-99.9,29.93,ENE,73,0.0,0.0,-999,-99.99,,,-99.99,,2013-06-21 07:20:00,
2013-06-21 00:25:00,63.0,-99.9,29.93,East,90,0.0,0.0,-999,-99.99,,,-99.99,,2013-06-21 07:25:00,
2013-06-21 00:30:00,62.9,-99.9,29.93,NE,43,0.0,10.8,-999,-99.99,,,-99.99,,2013-06-21 07:30:00,
2013-06-21 00:35:00,62.9,-99.9,29.92,ENE,63,7.9,19.3,-999,-99.99,,,-99.99,,2013-06-21 07:35:00,
2013-06-21 00:40:00,62.0,-99.9,29.92,ENE,63,0.0,0.0,-999,-99.99,,,-99.99,,2013-06-21 07:40:00,
2013-06-21 00:45:00,62.5,-99.9,29.92,ESE,107,5.5,12.7,-999,-99.99,,,-99.99,,2013-06-21 07:45:00,
2013-06-21 00:50:00,62.5,-99.9,29.92,ESE,121,0.0,13.7,-999,-99.99,,,-99.99,,2013-06-21 07:50:00,
2013-06-21 00:55:00,62.3,-99.9,29.92,ESE,110,7.6,13.4,-999,-99.99,,,-99.99,,2013-06-21 07:55:00,
2013-06-21 01:00:00,62.3,-99.9,29.92,ESE,105,0.0,0.0,-999,-99.99,,,-99.99,,2013-06-21 08:00:00,
2013-06-21 01:05:00,62.0,-99.9,29.92,ESE,105,0.0,0.0,-999,-99.99,,,-99.99,,2013-06-21 08:05:00,
2013-06-21 01:10:00,62.2,-99.9,29.92,ESE,105,0.0,14.3,-999,-99.99,,,-99.99,,2013-06-21 08:10:00,
2013-06-21 01:15:00,62.1,-99.9,29.92,ESE,117,0.0,0.0,-999,-99.99,,,-99.99,,2013-06-21 08:15:00,
2013-06-21 01:20:00,62.1,-99.9,29.92,East,80,0.0,0.0,-999,-99.99,,,-99.99,,2013-06-21 08:20:00,
2013-06-21 01:25:00,61.5,-99.9,29.92,ENE,77,8.9,13.4,-999,-99.99,,,-99.99,,2013-06-21 08:25:00,
2013-06-21 01:30:00,61.6,-99.9,29.92,East,84,0.0,0.0,-999,-99.99,,,-99.99,,2013-06-21 08:30:00,
2013-06-21 01:35:00,60.7,-99.9,29.92,East,94,10.8,14.2,-999,-99.99,,,-99.99,,2013-06-21 08:35:00,
2013-06-21 01:40:00,61.0,-99.9,29.92,East,101,0.0,0.0,-999,-99.99,,,-99.99,,2013-06-21 08:40:00,
2013-06-21 01:45:00,60.8,-99.9,29.91,ESE,121,12.7,14.6,-999,-99.99,,,-99.99,,2013-06-21 08:45:00,
2013-06-21 01:50:00,60.5,-99.9,29.91,ENE,77,0.0,16.7,-999,-99.99,,,-99.99,,2013-06-21 08:50:00,
2013-06-21 01:55:00,60.1,-99.9,29.91,ENE,59,8.5,8.5,-999,-99.99,,,-99.99,,2013-06-21 08:55:00,
2013-06-21 02:00:00,59.7,-99.9,29.91,East,88,0.0,11.4,-999,-99.99,,,-99.99,,2013-06-21 09:00:00,
2013-06-21 02:05:00,59.7,-99.9,29.91,ESE,108,17.5,18.5,-999,-99.99,,,-99.99,,2013-06-21 09:05:00,
2013-06-21 02:10:00,60.0,-99.9,29.91,East,93,0.0,12.6,-999,-99.99,,,-99.99,,2013-06-21 09:10:00,
2013-06-21 02:15:00,60.1,-99.9,29.91,ESE,122,0.0,0.0,-999,-99.99,,,-99.99,,2013-06-21 09:15:00,
2013-06-21 02:20:00,60.2,-99.9,29.91,ESE,122,0.0,0.0,-999,-99.99,,,-99.99,,2013-06-21 09:20:00,
2013-06-21 02:25:00,60.5,-99.9,29.91,ESE,122,0.0,0.0,-999,-99.99,,,-99.99,,2013-06-21 09:25:00,
2013-06-21 02:30:00,60.1,-99.9,29.91,ESE,122,0.0,0.0,-999,-99.99,,,-99.99,,2013-06-21 09:30:00,
2013-06-21 02:35:00,60.2,-99.9,29.91,ESE,122,0.0,0.0,-999,-99.99,,,-99.99,,2013-06-21 09:35:00,
2013-06-21 02:40:00,60.0,-99.9,29.91,ESE,122,0.0,0.0,-999,-99.99,,,-99.99,,2013-06-21 09:40:00,
2013-06-21 02:45:00,59.9,-99.9,29.91,ESE,122,0.0,0.0,-999,-99.99,,,-99.99,,2013-06-21 09:45:00,
2013-06-21 02:50:00,59.7,-99.9,29.91,ESE,122,0.0,0.0,-999,-99.99,,,-99.99,,2013-06-21 09:50:00,
2013-06-21 02:55:00,59.8,-99.9,29.90,ESE,122,0.0,0.0,-999,-99.99,,,-99.99,,2013-06-21 09:55:00,
2013-06-21 03:00:00,59.8,-99.9,29.90,ESE,122,0.0,0.0,-999,-99.99,,,-99.99,,2013-06-21 10:00:00,
2013-06-21 03:05:00,59.6,-99.9,29.90,ESE,122,0.0,0.0,-999,-99.99,,,-99.99,,2013-06-21 10:05:00,
2013-06-21 03:10:00,59.6,-99.9,29.90,ESE,122,0.0,0.0,-999,-99.99,,,-99.99,,2013-06-21 10:10:00,
2013-06-21 03:15:00,59.8,-99.9,29.90,ESE,122,0.0,0.0,-999,-99.99,,,-99.99,,2013-06-21 10:15:00,
2013-06-21 03:20:00,59.5,-99.9,29.90,ESE,122,0.0,0.0,-999,-99.99,,,-99.99,,2013-06-21 10:20:00,
2013-06-21 03:25:00,59.3,-99.9,29.90,ESE,122,0.0,0.0,-999,-99.99,,,-99.99,,2013-06-21 10:25:00,
2013-06-21 03:30:00,59.2,-99.9,29.90,ESE,122,0.0,0.0,-999,-99.99,,,-99.99,,2013-06-21 10:30:00,
2013-06-21 03:35:00,58.5,-99.9,29.90,SE,128,0.0,0.0,-999,-99.99,,,-99.99,,2013-06-21 10:35:00,
2013-06-21 03:40:00,59.0,-99.9,29.90,SE,128,0.0,0.0,-999,-99.99,,,-99.99,,2013-06-21 10:40:00,
2013-06-21 03:45:00,59.2,-99.9,29.89,SE,128,0.0,0.0,-999,-99.99,,,-99.99,,2013-06-21 10:45:00,
2013-06-21 03:50:00,59.2,-99.9,29.89,SE,128,0.0,0.0,-999,-99.99,,,-99.99,,2013-06-21 10:50:00,
2013-06-21 03:55:00,58.8,-99.9,29.89,SE,128,0.0,0.0,-999,-99.99,,,-99.99,,2013-06-21 10:55:00,
2013-06-21 04:00:00,58.8,-99.9,29.89,SE,128,0.0,0.0,-999,-99.99,,,-99.99,,2013-06-21 11:00:00,
2013-06-21 04:05:00,58.4,-99.9,29.89,SE,128,0.0,0.0,-999,-99.99,,,-99.99,,2013-06-21 11:05:00,
2013-06-21 04:10:00,58.6,-99.9,29.89,SE,128,0.0,0.0,-999,-99.99,,,-99.99,,2013-06-21 11:10:00,
2013-06-21 04:15:00,58.8,-99.9,29.89,SE,128,0.0,0.0,-999,-99.99,,,-99.99,,2013-06-21 11:15:00,
2013-06-21 04:20:00,58.4,-99.9,29.89,SE,128,0.0,0.0,-999,-99.99,,,-99.99,,2013-06-21 11:20:00,
2013-06-21 04:25:00,58.5,-99.9,29.89,SE,128,0.0,0.0,-999,-99.99,,,-99.99,,2013-06-21 11:25:00,
2013-06-21 04:35:00,58.1,-99.9,29.89,SE,128,0.0,0.0,-999,-99.99,,,-99.99,,2013-06-21 11:35:00,
2013-06-21 04:40:00,58.0,-99.9,29.89,SE,128,0.0,0.0,-999,-99.99,,,-99.99,,2013-06-21 11:40:00,
2013-06-21 04:45:00,57.8,-99.9,29.89,SE,128,0.0,0.0,-999,-99.99,,,-99.99,,2013-06-21 11:45:00,
2013-06-21 04:50:00,57.9,-99.9,29.89,SE,128,0.0,0.0,-999,-99.99,,,-99.99,,2013-06-21 11:50:00,
2013-06-21 04:55:00,57.8,-99.9,29.89,SE,128,0.0,0.0,-999,-99.99,,,-99.99,,2013-06-21 11:55:00,
2013-06-21 05:00:00,57.6,-99.9,29.89,SE,128,0.0,0.0,-999,-99.99,,,-99.99,,2013-06-21 12:00:00,
2013-06-21 05:05:00,57.6,-99.9,29.89,SE,128,0.0,0.0,-999,-99.99,,,-99.99,,2013-06-21 12:05:00,
2013-06-21 05:10:00,57.6,-99.9,29.89,SE,128,0.0,0.0,-999,-99.99,,,-99.99,,2013-06-21 12:10:00,
2013-06-21 05:15:00,57.8,-99.9,29.89,SE,128,0.0,0.0,-999,-99.99,,,-99.99,,2013-06-21 12:15:00,
2013-06-21 05:20:00,57.9,-99.9,29.89,SE,128,0.0,0.0,-999,-99.99,,,-99.99,,2013-06-21 12:20:00,
2013-06-21 05:25:00,57.3,-99.9,29.89,SE,128,0.0,0.0,-999,-99.99,,,-99.99,,2013-06-21 12:25:00,
2013-06-21 05:30:00,57.3,-99.9,29.89,SE,128,0.0,0.0,-999,-99.99,,,-99.99,,2013-06-21 12:30:00,
2013-06-21 05:35:00,56.9,-99.9,29.89,SE,128,0.0,0.0,-999,-99.99,,,-99.99,,2013-06-21 12:35:00,
2013-06-21 05:40:00,56.8,-99.9,29.89,SE,128,0.0,0.0,-999,-99.99,,,-99.99,,2013-06-21 12:40:00,
2013-06-21 05:45:00,57.0,-99.9,29.89,SE,128,0.0,0.0,-999,-99.99,,,-99.99,,2013-06-21 12:45:00,
2013-06-21 05:50:00,57.2,-99.9,29.89,SE,128,0.0,0.0,-999,-99.99,,,-99.99,,2013-06-21 12:50:00,
2013-06-21 05:55:00,56.9,-99.9,29.90,SE,128,0.0,0.0,-999,-99.99,,,-99.99,,2013-06-21 12:55:00,
2013-06-21 06:00:00,56.8,-99.9,29.90,SE,128,0.0,0.0,-999,-99.99,,,-99.99,,2013-06-21 13:00:00,
2013-06-21 06:05:00,56.8,-99.9,29.90,SE,128,0.0,0.0,-999,-99.99,,,-99.99,,2013-06-21 13:05:00,
2013-06-21 06:10:00,57.1,-99.9,29.90,SE,128,0.0,0.0,-999,-99.99,,,-99.99,,2013-06-21 13:10:00,
2013-06-21 06:15:00,57.3,-99.9,29.90,SE,128,0.0,0.0,-999,-99.99,,,-99.99,,2013-06-21 13:15:00,
2013-06-21 06:20:00,56.8,-99.9,29.90,SE,128,0.0,0.0,-999,-99.99,,,-99.99,,2013-06-21 13:20:00,
2013-06-21 06:25:00,57.1,-99.9,29.91,SE,128,0.0,0.0,-999,-99.99,,,-99.99,,2013-06-21 13:25:00,
2013-06-21 06:30:00,57.2,-99.9,29.90,SE,128,0.0,0.0,-999,-99.99,,,-99.99,,2013-06-21 13:30:00,
2013-06-21 06:35:00,56.4,-99.9,29.91,SE,128,0.0,0.0,-999,-99.99,,,-99.99,,2013-06-21 13:35:00,
2013-06-21 06:40:00,56.2,-99.9,29.90,SE,128,0.0,0.0,-999,-99.99,,,-99.99,,2013-06-21 13:40:00,
2013-06-21 06:45:00,56.8,-99.9,29.90,SE,128,0.0,0.0,-999,-99.99,,,-99.99,,2013-06-21 13:45:00,
2013-06-21 06:50:00,56.7,-99.9,29.90,SE,128,0.0,0.0,-999,-99.99,,,-99.99,,2013-06-21 13:50:00,
2013-06-21 06:55:00,56.6,-99.9,29.90,SE,128,0.0,0.0,-999,-99.99,,,-99.99,,2013-06-21 13:55:00,
2013-06-21 07:00:00,56.7,-99.9,29.90,SE,128,0.0,0.0,-999,-99.99,,,-99.99,,2013-06-21 14:00:00,
2013-06-21 07:05:00,56.5,-99.9,29.90,SE,128,0.0,0.0,-999,-99.99,,,-99.99,,2013-06-21 14:05:00,
2013-06-21 07:10:00,56.8,-99.9,29.91,SE,128,0.0,0.0,-999,-99.99,,,-99.99,,2013-06-21 14:10:00,
2013-06-21 07:15:00,56.9,-99.9,29.91,SE,128,0.0,0.0,-999,-99.99,,,-99.99,,2013-06-21 14:15:00,
2013-06-21 07:20:00,57.1,-99.9,29.91,SE,128,0.0,0.0,-999,-99.99,,,-99.99,,2013-06-21 14:20:00,
2013-06-21 07:25:00,57.2,-99.9,29.91,SE,128,0.0,0.0,-999,-99.99,,,-99.99,,2013-06-21 14:25:00,
2013-06-21 07:30:00,57.2,-99.9,29.91,SE,128,0.0,0.0,-999,-99.99,,,-99.99,,2013-06-21 14:30:00,
2013-06-21 07:35:00,57.4,-99.9,29.91,SE,128,0.0,0.0,-999,-99.99,,,-99.99,,2013-06-21 14:35:00,
2013-06-21 07:40:00,57.7,-99.9,29.91,SE,128,0.0,0.0,-999,-99.99,,,-99.99,,2013-06-21 14:40:00,
2013-06-21 07:45:00,57.9,-99.9,29.91,SE,128,0.0,0.0,-999,-99.99,,,-99.99,,2013-06-21 14:45:00,
2013-06-21 07:50:00,58.0,-99.9,29.91,SE,128,0.0,0.0,-999,-99.99,,,-99.99,,2013-06-21 14:50:00,
2013-06-21 07:55:00,58.0,-99.9,29.91,SE,128,0.0,0.0,-999,-99.99,,,-99.99,,2013-06-21 14:55:00,
2013-06-21 08:00:00,58.1,-99.9,29.91,SE,128,0.0,0.0,-999,-99.99,,,-99.99,,2013-06-21 15:00:00,
2013-06-21 08:05:00,58.2,-99.9,29.91,SE,128,0.0,0.0,-999,-99.99,,,-99.99,,2013-06-21 15:05:00,
2013-06-21 08:10:00,58.4,-99.9,29.91,SE,128,0.0,0.0,-999,-99.99,,,-99.99,,2013-06-21 15:10:00,
2013-06-21 08:20:00,59.5,-99.9,29.91,SE,128,0.0,0.0,-999,-99.99,,,-99.99,,2013-06-21 15:20:00,
2013-06-21 08:25:00,59.8,-99.9,29.92,SE,128,0.0,0.0,-999,-99.99,,,-99.99,,2013-06-21 15:25:00,
2013-06-21 08:30:00,60.2,-99.9,29.92,SE,128,0.0,0.0,-999,-99.99,,,-99.99,,2013-06-21 15:30:00,
2013-06-21 08:35:00,60.5,-99.9,29.92,SE,128,0.0,0.0,-999,-99.99,,,-99.99,,2013-06-21 15:35:00,
2013-06-21 08:40:00,60.5,-99.9,29.92,SE,128,0.0,0.0,-999,-99.99,,,-99.99,,2013-06-21 15:40:00,
2013-06-21 08:50:00,61.0,-99.9,29.93,SE,128,0.0,0.0,-999,-99.99,,,-99.99,,2013-06-21 15:50:00,
2013-06-21 08:55:00,61.2,-99.9,29.93,SE,128,0.0,0.0,-999,-99.99,,,-99.99,,2013-06-21 15:55:00,
2013-06-21 09:00:00,61.7,-99.9,29.92,SE,128,0.0,0.0,-999,-99.99,,,-99.99,,2013-06-21 16:00:00,
2013-06-21 09:05:00,61.7,-99.9,29.93,SE,128,0.0,0.0,-999,-99.99,,,-99.99,,2013-06-21 16:05:00,
2013-06-21 09:10:00,62.4,-99.9,29.92,SE,128,0.0,0.0,-999,-99.99,,,-99.99,,2013-06-21 16:10:00,
2013-06-21 09:15:00,62.6,-99.9,29.92,WSW,251,8.9,11.4,-999,-99.99,,,-99.99,,2013-06-21 16:15:00,
2013-06-21 09:20:00,63.1,-99.9,29.93,WNW,293,12.2,12.2,-999,-99.99,,,-99.99,,2013-06-21 16:20:00,
2013-06-21 09:25:00,63.9,-99.9,29.93,West,261,0.0,15.8,-999,-99.99,,,-99.99,,2013-06-21 16:25:00,
2013-06-21 09:30:00,63.9,-99.9,29.92,WSW,248,0.0,7.7,-999,-99.99,,,-99.99,,2013-06-21 16:30:00,
2013-06-21 09:35:00,64.4,-99.9,29.92,WSW,242,7.9,10.9,-999,-99.99,,,-99.99,,2013-06-21 16:35:00,
2013-06-21 09:40:00,64.4,-99.9,29.93,WNW,303,8.4,11.7,-999,-99.99,,,-99.99,,2013-06-21 16:40:00,
2013-06-21 09:50:00,64.7,-99.9,29.93,West,280,8.9,14.5,-999,-99.99,,,-99.99,,2013-06-21 16:50:00,
2013-06-21 09:55:00,64.6,-99.9,29.93,WSW,238,0.0,13.8,-999,-99.99,,,-99.99,,2013-06-21 16:55:00,
2013-06-21 10:05:00,64.7,-99.9,29.93,SW,231,0.0,0.0,-999,-99.99,,,-99.99,,2013-06-21 17:05:00,
2013-06-21 10:10:00,64.9,-99.9,29.93,SW,230,0.0,8.9,-999,-99.99,,,-99.99,,2013-06-21 17:10:00,
2013-06-21 10:15:00,64.9,-99.9,29.93,SW,220,0.0,0.0,-999,-99.99,,,-99.99,,2013-06-21 17:15:00,
2013-06-21 10:25:00,65.1,-99.9,29.93,West,265,0.0,0.0,-999,-99.99,,,-99.99,,2013-06-21 17:25:00,
2013-06-21 10:30:00,65.2,-99.9,29.93,NW,309,0.0,11.6,-999,-99.99,,,-99.99,,2013-06-21 17:30:00,
2013-06-21 10:35:00,65.6,-99.9,29.93,WSW,245,0.0,13.4,-999,-99.99,,,-99.99,,2013-06-21 17:35:00,
2013-06-21 10:45:00,65.8,-99.9,29.93,West,261,12.2,12.2,-999,-99.99,,,-99.99,,2013-06-21 17:45:00,
2013-06-21 10:50:00,65.9,-99.9,29.93,WSW,242,0.0,0.0,-999,-99.99,,,-99.99,,2013-06-21 17:50:00,
2013-06-21 10:55:00,66.1,-99.9,29.93,NW,311,6.8,14.2,-999,-99.99,,,-99.99,,2013-06-21 17:55:00,
2013-06-21 11:00:00,66.1,-99.9,29.93,WSW,237,0.0,0.0,-999,-99.99,,,-99.99,,2013-06-21 18:00:00,
2013-06-21 11:05:00,66.1,-99.9,29.93,WSW,256,0.0,8.5,-999,-99.99,,,-99.99,,2013-06-21 18:05:00,
2013-06-21 11:10:00,66.5,-99.9,29.93,SW,234,0.0,0.0,-999,-99.99,,,-99.99,,2013-06-21 18:10:00,
2013-06-21 11:20:00,67.0,-99.9,29.93,West,259,0.0,0.0,-999,-99.99,,,-99.99,,2013-06-21 18:20:00,
2013-06-21 11:25:00,66.9,-99.9,29.93,WSW,251,0.0,0.0,-999,-99.99,,,-99.99,,2013-06-21 18:25:00,
2013-06-21 11:30:00,67.3,-99.9,29.93,WSW,237,0.0,0.0,-999,-99.99,,,-99.99,,2013-06-21 18:30:00,
2013-06-21 11:40:00,67.2,-99.9,29.93,WSW,244,0.0,0.0,-999,-99.99,,,-99.99,,2013-06-21 18:40:00,
2013-06-21 11:45:00,67.5,-99.9,29.93,WSW,244,0.0,0.0,-999,-99.99,,,-99.99,,2013-06-21 18:45:00,
2013-06-21 11:50:00,68.1,-99.9,29.93,WSW,244,0.0,0.0,-999,-99.99,,,-99.99,,2013-06-21 18:50:00,
2013-06-21 11:55:00,68.2,-99.9,29.93,WSW,252,0.0,8.7,-999,-99.99,,,-99.99,,2013-06-21 18:55:00,
2013-06-21 12:00:00,68.5,-99.9,29.93,WSW,238,0.0,0.0,-999,-99.99,,,-99.99,,2013-06-21 19:00:00,
2013-06-21 12:05:00,68.9,-99.9,29.93,West,271,0.0,13.8,-999,-99.99,,,-99.99,,2013-06-21 19:05:00,
2013-06-21 12:10:00,68.9,-99.9,29.93,WSW,258,0.0,0.0,-999,-99.99,,,-99.99,,2013-06-21 19:10:00,
2013-06-21 12:15:00,69.4,-99.9,29.93,SW,220,8.9,13.5,-999,-99.99,,,-99.99,,2013-06-21 19:15:00,
2013-06-21 12:20:00,69.6,-99.9,29.93,South,191,0.0,14.8,-999,-99.99,,,-99.99,,2013-06-21 19:20:00,
2013-06-21 12:25:00,70.0,-99.9,29.93,NW,323,7.4,24.3,-999,-99.99,,,-99.99,,2013-06-21 19:25:00,
2013-06-21 12:30:00,70.0,-99.9,29.93,WNW,292,10.8,14.0,-999,-99.99,,,-99.99,,2013-06-21 19:30:00,
2013-06-21 12:35:00,69.7,-99.9,29.93,WSW,242,0.0,0.0,-999,-99.99,,,-99.99,,2013-06-21 19:35:00,
2013-06-21 12:40:00,70.1,-99.9,29.93,NW,316,0.0,8.4,-999,-99.99,,,-99.99,,2013-06-21 19:40:00,
2013-06-21 12:45:00,70.2,-99.9,29.93,SW,214,12.1,16.4,-999,-99.99,,,-99.99,,2013-06-21 19:45:00,
2013-06-21 12:55:00,70.7,-99.9,29.93,West,259,0.0,0.0,-999,-99.99,,,-99.99,,2013-06-21 19:55:00,
2013-06-21 13:00:00,70.4,-99.9,29.93,West,259,0.0,0.0,-999,-99.99,,,-99.99,,2013-06-21 20:00:00,
2013-06-21 13:10:00,70.7,-99.9,29.93,WSW,248,0.0,6.6,-999,-99.99,,,-99.99,,2013-06-21 20:10:00,
2013-06-21 13:15:00,71.1,-99.9,29.93,WSW,248,0.0,0.0,-999,-99.99,,,-99.99,,2013-06-21 20:15:00,
2013-06-21 13:20:00,71.5,-99.9,29.93,West,263,8.4,14.5,-999,-99.99,,,-99.99,,2013-06-21 20:20:00,
2013-06-21 13:25:00,71.5,-99.9,29.93,West,262,0.0,6.1,-999,-99.99,,,-99.99,,2013-06-21 20:25:00,
2013-06-21 13:30:00,71.4,-99.9,29.93,WSW,237,0.0,12.1,-999,-99.99,,,-99.99,,2013-06-21 20:30:00,
2013-06-21 13:35:00,71.4,-99.9,29.93,West,262,0.0,0.0,-999,-99.99,,,-99.99,,2013-06-21 20:35:00,
2013-06-21 13:40:00,71.6,-99.9,29.93,WSW,251,0.0,9.0,-999,-99.99,,,-99.99,,2013-06-21 20:40:00,
2013-06-21 13:45:00,71.8,-99.9,29.93,WNW,303,0.0,0.0,-999,-99.99,,,-99.99,,2013-06-21 20:45:00,
2013-06-21 13:50:00,71.8,-99.9,29.93,WNW,303,0.0,0.0,-999,-99.99,,,-99.99,,2013-06-21 20:50:00,
2013-06-21 13:55:00,71.7,-99.9,29.93,WNW,303,0.0,3.7,-999,-99.99,,,-99.99,,2013-06-21 20:55:00,
2013-06-21 14:00:00,72.4,-99.9,29.93,West,272,0.0,15.3,-999,-99.99,,,-99.99,,2013-06-21 21:00:00,
2013-06-21 14:05:00,72.6,-99.9,29.92,West,276,0.0,0.0,-999,-99.99,,,-99.99,,2013-06-21 21:05:00,
2013-06-21 14:10:00,72.7,-99.9,29.92,West,275,7.6,12.6,-999,-99.99,,,-99.99,,2013-06-21 21:10:00,
2013-06-21 14:15:00,72.9,-99.9,29.92,West,273,0.0,8.0,-999,-99.99,,,-99.99,,2013-06-21 21:15:00,
2013-06-21 14:20:00,73.1,-99.9,29.92,South,169,0.0,0.0,-999,-99.99,,,-99.99,,2013-06-21 21:20:00,
2013-06-21 14:25:00,73.2,-99.9,29.92,South,169,0.0,0.0,-999,-99.99,,,-99.99,,2013-06-21 21:25:00,
2013-06-21 14:30:00,73.2,-99.9,29.92,North,359,0.0,0.0,-999,-99.99,,,-99.99,,2013-06-21 21:30:00,
2013-06-21 14:40:00,73.6,-99.9,29.92,West,271,0.0,0.0,-999,-99.99,,,-99.99,,2013-06-21 21:40:00,
2013-06-21 14:45:00,73.7,-99.9,29.92,WSW,244,0.0,0.0,-999,-99.99,,,-99.99,,2013-06-21 21:45:00,
2013-06-21 14:50:00,73.9,-99.9,29.92,ESE,103,0.0,0.0,-999,-99.99,,,-99.99,,2013-06-21 21:50:00,
2013-06-21 15:00:00,74.3,-99.9,29.92,NNW,347,0.0,0.0,-999,-99.99,,,-99.99,,2013-06-21 22:00:00,
2013-06-21 15:05:00,74.1,-99.9,29.92,NW,307,0.0,7.6,-999,-99.99,,,-99.99,,2013-06-21 22:05:00,
2013-06-21 15:10:00,74.5,-99.9,29.92,SW,223,0.0,19.5,-999,-99.99,,,-99.99,,2013-06-21 22:10:00,
2013-06-21 15:15:00,74.6,-99.9,29.91,West,263,0.0,0.0,-999,-99.99,,,-99.99,,2013-06-21 22:15:00,
2013-06-21 15:20:00,74.8,-99.9,29.92,WSW,244,8.7,11.4,-999,-99.99,,,-99.99,,2013-06-21 22:20:00,
2013-06-21 15:25:00,74.8,-99.9,29.92,WSW,244,0.0,0.0,-999,-99.99,,,-99.99,,2013-06-21 22:25:00,
2013-06-21 15:30:00,74.9,-99.9,29.92,SW,227,0.0,12.1,-999,-99.99,,,-99.99,,2013-06-21 22:30:00,
2013-06-21 15:40:00,75.1,-99.9,29.91,South,172,0.0,0.0,-999,-99.99,,,-99.99,,2013-06-21 22:40:00,
2013-06-21 15:45:00,75.0,-99.9,29.91,South,172,0.0,0.0,-999,-99.99,,,-99.99,,2013-06-21 22:45:00,
2013-06-21 15:50:00,75.3,-99.9,29.91,West,262,0.0,0.0,-999,-99.99,,,-99.99,,2013-06-21 22:50:00,
2013-06-21 16:00:00,75.5,-99.9,29.91,West,262,0.0,0.0,-999,-99.99,,,-99.99,,2013-06-21 23:00:00,
2013-06-21 16:05:00,75.4,-99.9,29.92,SSW,208,0.0,0.0,-999,-99.99,,,-99.99,,2013-06-21 23:05:00,
2013-06-21 16:10:00,75.6,-99.9,29.92,WSW,255,0.0,0.0,-999,-99.99,,,-99.99,,2013-06-21 23:10:00,
2013-06-21 16:15:00,75.8,-99.9,29.92,WSW,255,0.0,0.0,-999,-99.99,,,-99.99,,2013-06-21 23:15:00,
2013-06-21 16:20:00,75.9,-99.9,29.92,WSW,255,0.0,0.0,-999,-99.99,,,-99.99,,2013-06-21 23:20:00,
2013-06-21 16:30:00,76.0,-99.9,29.91,WNW,303,8.4,8.4,-999,-99.99,,,-99.99,,2013-06-21 23:30:00,
2013-06-21 16:35:00,76.2,-99.9,29.91,WNW,303,0.0,0.0,-999,-99.99,,,-99.99,,2013-06-21 23:35:00,
2013-06-21 16:40:00,76.2,-99.9,29.91,WNW,303,0.0,0.0,-999,-99.99,,,-99.99,,2013-06-21 23:40:00,
2013-06-21 16:50:00,76.7,-99.9,29.91,West,268,0.0,0.0,-999,-99.99,,,-99.99,,2013-06-21 23:50:00,
2013-06-21 16:55:00,76.7,-99.9,29.91,West,268,0.0,0.0,-999,-99.99,,,-99.99,,2013-06-21 23:55:00,
2013-06-21 17:00:00,76.9,-99.9,29.91,West,280,0.0,0.0,-999,-99.99,,,-99.99,,2013-06-22 00:00:00,
2013-06-21 17:10:00,77.2,-99.9,29.91,SSE,156,0.0,0.0,-999,-99.99,,,-99.99,,2013-06-22 00:10:00,
2013-06-21 17:15:00,77.2,-99.9,29.91,SSE,156,0.0,0.0,-999,-99.99,,,-99.99,,2013-06-22 00:15:00,
2013-06-21 17:20:00,77.3,-99.9,29.91,SSE,156,0.0,0.0,-999,-99.99,,,-99.99,,2013-06-22 00:20:00,
2013-06-21 17:30:00,77.4,-99.9,29.91,SSE,156,0.0,0.0,-999,-99.99,,,-99.99,,2013-06-22 00:30:00,
2013-06-21 17:35:00,77.3,-99.9,29.91,SSE,156,0.0,0.0,-999,-99.99,,,-99.99,,2013-06-22 00:35:00,
2013-06-21 17:40:00,77.2,-99.9,29.91,SSE,156,0.0,0.0,-999,-99.99,,,-99.99,,2013-06-22 00:40:00,
2013-06-21 17:50:00,77.4,-99.9,29.91,SSE,156,0.0,0.0,-999,-99.99,,,-99.99,,2013-06-22 00:50:00,
2013-06-21 17:55:00,77.7,-99.9,29.91,SSE,156,0.0,0.0,-999,-99.99,,,-99.99,,2013-06-22 00:55:00,
2013-06-21 18:00:00,77.8,-99.9,29.90,SSE,156,0.0,0.0,-999,-99.99,,,-99.99,,2013-06-22 01:00:00,
2013-06-21 18:05:00,77.7,-99.9,29.90,SSE,156,0.0,0.0,-999,-99.99,,,-99.99,,2013-06-22 01:05:00,
2013-06-21 18:10:00,77.7,-99.9,29.90,SSE,156,0.0,0.0,-999,-99.99,,,-99.99,,2013-06-22 01:10:00,
2013-06-21 18:15:00,77.8,-99.9,29.90,SSE,156,0.0,0.0,-999,-99.99,,,-99.99,,2013-06-22 01:15:00,
2013-06-21 18:20:00,77.9,-99.9,29.90,SSE,156,0.0,0.0,-999,-99.99,,,-99.99,,2013-06-22 01:20:00,
2013-06-21 18:25:00,77.9,-99.9,29.91,SSE,156,0.0,0.0,-999,-99.99,,,-99.99,,2013-06-22 01:25:00,
2013-06-21 18:30:00,78.0,-99.9,29.91,SSE,156,0.0,0.0,-999,-99.99,,,-99.99,,2013-06-22 01:30:00,
2013-06-21 18:35:00,78.3,-99.9,29.91,SSE,156,0.0,0.0,-999,-99.99,,,-99.99,,2013-06-22 01:35:00,
2013-06-21 18:40:00,78.2,-99.9,29.91,SSE,156,0.0,0.0,-999,-99.99,,,-99.99,,2013-06-22 01:40:00,
2013-06-21 18:45:00,78.4,-99.9,29.91,SSE,156,0.0,0.0,-999,-99.99,,,-99.99,,2013-06-22 01:45:00,
2013-06-21 18:50:00,78.5,-99.9,29.91,SSE,156,0.0,0.0,-999,-99.99,,,-99.99,,2013-06-22 01:50:00,
2013-06-21 18:55:00,78.2,-99.9,29.91,SSE,156,0.0,0.0,-999,-99.99,,,-99.99,,2013-06-22 01:55:00,
2013-06-21 19:00:00,78.2,-99.9,29.91,SSE,156,0.0,0.0,-999,-99.99,,,-99.99,,2013-06-22 02:00:00,
2013-06-21 19:05:00,78.2,-99.9,29.91,SSE,156,0.0,0.0,-999,-99.99,,,-99.99,,2013-06-22 02:05:00,
2013-06-21 19:10:00,78.2,-99.9,29.91,SSE,156,0.0,0.0,-999,-99.99,,,-99.99,,2013-06-22 02:10:00,
2013-06-21 19:15:00,78.3,-99.9,29.91,SSE,156,0.0,0.0,-999,-99.99,,,-99.99,,2013-06-22 02:15:00,
2013-06-21 19:20:00,78.3,-99.9,29.91,SSE,156,0.0,0.0,-999,-99.99,,,-99.99,,2013-06-22 02:20:00,
2013-06-21 19:25:00,78.0,-99.9,29.91,SSE,156,0.0,0.0,-999,-99.99,,,-99.99,,2013-06-22 02:25:00,
2013-06-21 19:30:00,78.0,-99.9,29.91,SSE,156,0.0,0.0,-999,-99.99,,,-99.99,,2013-06-22 02:30:00,
2013-06-21 19:35:00,77.9,-99.9,29.91,SSE,156,0.0,0.0,-999,-99.99,,,-99.99,,2013-06-22 02:35:00,
2013-06-21 19:40:00,77.9,-99.9,29.91,SSE,156,0.0,0.0,-999,-99.99,,,-99.99,,2013-06-22 02:40:00,
2013-06-21 19:45:00,77.8,-99.9,29.91,SSE,156,0.0,0.0,-999,-99.99,,,-99.99,,2013-06-22 02:45:00,
2013-06-21 19:50:00,77.8,-99.9,29.91,SSE,156,0.0,0.0,-999,-99.99,,,-99.99,,2013-06-22 02:50:00,
2013-06-21 19:55:00,77.7,-99.9,29.91,SSE,156,0.0,0.0,-999,-99.99,,,-99.99,,2013-06-22 02:55:00,
2013-06-21 20:00:00,77.4,-99.9,29.91,SSE,156,0.0,0.0,-999,-99.99,,,-99.99,,2013-06-22 03:00:00,
2013-06-21 20:05:00,77.2,-99.9,29.91,SSE,156,0.0,0.0,-999,-99.99,,,-99.99,,2013-06-22 03:05:00,
2013-06-21 20:10:00,77.3,-99.9,29.91,SSE,156,0.0,0.0,-999,-99.99,,,-99.99,,2013-06-22 03:10:00,
2013-06-21 20:20:00,76.5,-99.9,29.91,ENE,70,0.0,11.3,-999,-99.99,,,-99.99,,2013-06-22 03:20:00,
2013-06-21 20:25:00,75.9,-99.9,29.91,ESE,105,0.0,0.0,-999,-99.99,,,-99.99,,2013-06-22 03:25:00,
2013-06-21 20:30:00,76.1,-99.9,29.90,ESE,105,0.0,0.0,-999,-99.99,,,-99.99,,2013-06-22 03:30:00,
2013-06-21 20:35:00,75.9,-99.9,29.90,ESE,105,0.0,0.0,-999,-99.99,,,-99.99,,2013-06-22 03:35:00,
2013-06-21 20:40:00,75.4,-99.9,29.90,ESE,105,0.0,0.0,-999,-99.99,,,-99.99,,2013-06-22 03:40:00,
2013-06-21 20:45:00,75.3,-99.9,29.90,ESE,105,0.0,0.0,-999,-99.99,,,-99.99,,2013-06-22 03:45:00,
2013-06-21 20:50:00,74.8,-99.9,29.90,ENE,60,5.8,7.9,-999,-99.99,,,-99.99,,2013-06-22 03:50:00,
2013-06-21 20:55:00,74.6,-99.9,29.90,ENE,60,0.0,0.0,-999,-99.99,,,-99.99,,2013-06-22 03:55:00,
2013-06-21 21:00:00,74.2,-99.9,29.90,ENE,60,0.0,0.0,-999,-99.99,,,-99.99,,2013-06-22 04:00:00,
2013-06-21 21:05:00,74.3,-99.9,29.90,ENE,60,0.0,0.0,-999,-99.99,,,-99.99,,2013-06-22 04:05:00,
2013-06-21 21:10:00,73.7,-99.9,29.90,ENE,60,0.0,0.0,-999,-99.99,,,-99.99,,2013-06-22 04:10:00,
2013-06-21 21:15:00,73.6,-99.9,29.90,ENE,60,0.0,0.0,-999,-99.99,,,-99.99,,2013-06-22 04:15:00,
2013-06-21 21:20:00,73.2,-99.9,29.90,ENE,60,0.0,0.0,-999,-99.99,,,-99.99,,2013-06-22 04:20:00,
2013-06-21 21:25:00,72.2,-99.9,29.90,ENE,60,0.0,0.0,-999,-99.99,,,-99.99,,2013-06-22 04:25:00,
2013-06-21 21:30:00,72.3,-99.9,29.90,ENE,60,0.0,0.0,-999,-99.99,,,-99.99,,2013-06-22 04:30:00,
2013-06-21 21:35:00,71.4,-99.9,29.90,ENE,60,0.0,0.0,-999,-99.99,,,-99.99,,2013-06-22 04:35:00,
2013-06-21 21:40:00,71.3,-99.9,29.90,ENE,60,0.0,0.0,-999,-99.99,,,-99.99,,2013-06-22 04:40:00,
2013-06-21 21:45:00,70.7,-99.9,29.90,ENE,60,0.0,0.0,-999,-99.99,,,-99.99,,2013-06-22 04:45:00,
2013-06-21 21:50:00,70.9,-99.9,29.90,East,84,0.0,0.0,-999,-99.99,,,-99.99,,2013-06-22 04:50:00,
2013-06-21 21:55:00,70.4,-99.9,29.91,East,84,0.0,0.0,-999,-99.99,,,-99.99,,2013-06-22 04:55:00,
2013-06-21 22:00:00,70.1,-99.9,29.91,East,84,0.0,0.0,-999,-99.99,,,-99.99,,2013-06-22 05:00:00,
2013-06-21 22:05:00,70.0,-99.9,29.91,East,84,0.0,0.0,-999,-99.99,,,-99.99,,2013-06-22 05:05:00,
2013-06-21 22:10:00,70.0,-99.9,29.91,East,84,0.0,0.0,-999,-99.99,,,-99.99,,2013-06-22 05:10:00,
2013-06-21 22:15:00,69.8,-99.9,29.91,East,84,0.0,0.0,-999,-99.99,,,-99.99,,2013-06-22 05:15:00,
2013-06-21 22:20:00,70.0,-99.9,29.91,East,84,0.0,0.0,-999,-99.99,,,-99.99,,2013-06-22 05:20:00,
2013-06-21 22:25:00,69.8,-99.9,29.91,East,84,0.0,0.0,-999,-99.99,,,-99.99,,2013-06-22 05:25:00,
2013-06-21 22:30:00,69.5,-99.9,29.91,ESE,114,0.0,0.0,-999,-99.99,,,-99.99,,2013-06-22 05:30:00,
2013-06-21 22:35:00,69.2,-99.9,29.91,ESE,114,0.0,0.0,-999,-99.99,,,-99.99,,2013-06-22 05:35:00,
2013-06-21 22:40:00,69.2,-99.9,29.91,ESE,114,0.0,0.0,-999,-99.99,,,-99.99,,2013-06-22 05:40:00,
2013-06-21 22:45:00,68.9,-99.9,29.91,ESE,114,0.0,0.0,-999,-99.99,,,-99.99,,2013-06-22 05:45:00,
2013-06-21 22:50:00,68.8,-99.9,29.91,ESE,114,0.0,0.0,-999,-99.99,,,-99.99,,2013-06-22 05:50:00,
2013-06-21 22:55:00,68.3,-99.9,29.91,ESE,114,0.0,0.0,-999,-99.99,,,-99.99,,2013-06-22 05:55:00,
2013-06-21 23:00:00,68.1,-99.9,29.91,ESE,114,0.0,0.0,-999,-99.99,,,-99.99,,2013-06-22 06:00:00,
2013-06-21 23:05:00,68.0,-99.9,29.91,ESE,114,0.0,0.0,-999,-99.99,,,-99.99,,2013-06-22 06:05:00,
2013-06-21 23:10:00,67.8,-99.9,29.91,East,84,0.0,0.0,-999,-99.99,,,-99.99,,2013-06-22 06:10:00,
2013-06-21 23:15:00,67.7,-99.9,29.91,East,84,0.0,0.0,-999,-99.99,,,-99.99,,2013-06-22 06:15:00,
2013-06-21 23:20:00,67.6,-99.9,29.91,East,84,0.0,0.0,-999,-99.99,,,-99.99,,2013-06-22 06:20:00,
2013-06-21 23:25:00,67.7,-99.9,29.91,East,84,0.0,0.0,-999,-99.99,,,-99.99,,2013-06-22 06:25:00,
2013-06-21 23:30:00,66.7,-99.9,29.91,ENE,70,0.0,0.0,-999,-99.99,,,-99.99,,2013-06-22 06:30:00,
2013-06-21 23:35:00,67.3,-99.9,29.91,ENE,70,0.0,0.0,-999,-99.99,,,-99.99,,2013-06-22 06:35:00,
2013-06-21 23:40:00,67.0,-99.9,29.91,ENE,70,0.0,0.0,-999,-99.99,,,-99.99,,2013-06-22 06:40:00,
2013-06-21 23:50:00,67.0,-99.9,29.91,ENE,70,0.0,0.0,-999,-99.99,,,-99.99,,2013-06-22 06:50:00,
2013-06-21 23:55:00,66.2,-99.9,29.90,East,94,0.0,0.0,-999,-99.99,,,-99.99,,2013-06-22 06:55:00,